Eastsound, WA

2:35 AM PST on February 25, 2017 (GMT -0800)
Orcas Island

Weather History for KORS - December, 2012

Change the Weather History Date:

Tuesday, December 4, 2012

  Actual Average (KFHR) Record (KFHR)
Temperature  
Mean Temperature 47 °F -  
Max Temperature 53 °F 45 °F 53 °F (2007)
Min Temperature 41 °F 36 °F 21 °F (2013)
Degree Days  
Heating Degree Days 18    
Moisture  
Dew Point 42 °F    
Average Humidity 82    
Maximum Humidity 100    
Minimum Humidity 62    
Precipitation  
Precipitation 0.15 in - - ()
Sea Level Pressure  
Sea Level Pressure 29.60 in    
Wind  
Wind Speed 10 mph (SSW)    
Max Wind Speed 20 mph    
Max Gust Speed 33 mph    
Visibility 9 miles    
Events Rain    
Averages and records for this station are not official NWS values.
T = Trace of Precipitation, MM = Missing Value Source: NWS Daily Summary

Daily Weather History Graph

Daily Weather History Graph

Search for Another Location

Airport or City:

Trip Planner

Search our weather history database for the weather conditions in past years. The results will help you decide how hot, cold, wet, or windy it might be!

Date:

Astronomy

Dec. 04, 2012 Rise Set
Actual Time 7:47 AM PST 4:16 PM PST
Civil Twilight 7:11 AM PST 4:52 PM PST
Nautical Twilight 6:31 AM PST 5:32 PM PST
Astronomical Twilight 5:53 AM PST 6:10 PM PST
Moon 10:29 PM PST (12/4) 11:26 AM PST (12/4)
Length of Visible Light 9h 41m
Length of Day
8h 28m
Waning Gibbous, 68% of the Moon is Illuminated
Dec 4
Waning Gibbous
Dec 6
Last Quarter
Dec 13
New
Dec 19
First Quarter
Dec 28
Full

Hourly Weather History & Observations

Time (PST) Temp. Windchill Dew Point Humidity Pressure Visibility Wind Dir Wind Speed Gust Speed Precip Events Conditions
12:15 AM 53.6 °F - 41.0 °F 62% 29.53 in 10.0 mi SSE 12.7 mph 31.1 mph N/A   Clear
12:35 AM 53.6 °F - 41.0 °F 62% 29.52 in 10.0 mi SSE 10.4 mph 27.6 mph N/A   Clear
12:55 AM 51.8 °F - 41.0 °F 67% 29.52 in 10.0 mi SSE 12.7 mph 24.2 mph N/A   Clear
1:15 AM 50.0 °F - 41.0 °F 71% 29.51 in 10.0 mi SSE 11.5 mph 24.2 mph N/A   Clear
1:35 AM 50.0 °F - 41.0 °F 71% 29.49 in 10.0 mi South 13.8 mph 24.2 mph N/A   Partly Cloudy
1:55 AM 48.2 °F - 44.6 °F 87% 29.47 in 5.0 mi SSE 9.2 mph 24.2 mph N/A Rain Light Rain
2:15 AM 48.2 °F - 44.6 °F 87% 29.47 in 4.0 mi SSE 10.4 mph 20.7 mph 0.04 in Rain Rain
2:35 AM 46.4 °F 40.7 °F 44.6 °F 93% 29.46 in 4.0 mi SSE 12.7 mph 25.3 mph 0.11 in Rain Heavy Rain
2:55 AM 46.4 °F 41.1 °F 44.6 °F 93% 29.44 in 4.0 mi SSE 11.5 mph 21.9 mph 0.12 in Rain Light Rain
3:15 AM 46.4 °F 39.8 °F 44.6 °F 93% 29.43 in 10.0 mi SSE 16.1 mph 29.9 mph N/A   Mostly Cloudy
3:35 AM 48.2 °F - 42.8 °F 82% 29.41 in 9.0 mi SE 18.4 mph 33.4 mph N/A   Mostly Cloudy
3:55 AM 48.2 °F - 42.8 °F 82% 29.41 in 10.0 mi South 10.4 mph 25.3 mph N/A   Mostly Cloudy
4:15 AM 48.2 °F - 42.8 °F 82% 29.40 in 10.0 mi SSE 13.8 mph 29.9 mph N/A   Mostly Cloudy
4:35 AM 48.2 °F - 44.6 °F 87% 29.40 in 10.0 mi South 12.7 mph 28.8 mph N/A   Mostly Cloudy
4:55 AM 48.2 °F - 44.6 °F 87% 29.41 in 10.0 mi South 11.5 mph 28.8 mph N/A   Mostly Cloudy
5:15 AM 48.2 °F - 44.6 °F 87% 29.42 in 10.0 mi South 16.1 mph 25.3 mph N/A   Mostly Cloudy
5:35 AM 48.2 °F - 44.6 °F 87% 29.42 in 10.0 mi South 15.0 mph 29.9 mph N/A   Mostly Cloudy
5:55 AM 50.0 °F - 44.6 °F 82% 29.44 in 10.0 mi South 15.0 mph 23.0 mph N/A   Mostly Cloudy
6:15 AM 50.0 °F - 44.6 °F 82% 29.46 in 10.0 mi South 12.7 mph 20.7 mph N/A   Overcast
6:35 AM 50.0 °F - 44.6 °F 82% 29.47 in 10.0 mi South 12.7 mph 33.4 mph N/A   Mostly Cloudy
6:55 AM 48.2 °F - 46.4 °F 93% 29.49 in 10.0 mi SW 19.6 mph 26.5 mph N/A   Mostly Cloudy
7:15 AM 48.2 °F - 46.4 °F 93% 29.51 in 9.0 mi South 16.1 mph 21.9 mph N/A Rain Light Rain
7:35 AM 48.2 °F - 46.4 °F 93% 29.52 in 10.0 mi South 10.4 mph 19.6 mph N/A   Overcast
7:55 AM 48.2 °F - 46.4 °F 93% 29.54 in 10.0 mi SSW 11.5 mph 23.0 mph N/A   Overcast
8:15 AM 48.2 °F - 44.6 °F 87% 29.55 in 10.0 mi SSW 13.8 mph 23.0 mph N/A   Scattered Clouds
8:35 AM 50.0 °F - 42.8 °F 76% 29.57 in 10.0 mi SSW 10.4 mph 17.3 mph N/A   Clear
8:55 AM 50.0 °F - 39.2 °F 66% 29.59 in 10.0 mi SSE 6.9 mph - N/A   Clear
9:15 AM 50.0 °F - 39.2 °F 66% 29.60 in 10.0 mi WSW 4.6 mph - N/A   Scattered Clouds
9:35 AM 50.0 °F - 39.2 °F 66% 29.62 in 10.0 mi WNW 3.5 mph - N/A   Partly Cloudy
9:55 AM 50.0 °F - 39.2 °F 66% 29.63 in 10.0 mi West 9.2 mph - N/A   Clear
10:15 AM 50.0 °F - 39.2 °F 66% 29.64 in 10.0 mi West 10.4 mph 17.3 mph N/A   Partly Cloudy
10:35 AM 50.0 °F - 41.0 °F 71% 29.65 in 10.0 mi WSW 5.8 mph 16.1 mph N/A   Scattered Clouds
10:55 AM 50.0 °F - 39.2 °F 66% 29.66 in 10.0 mi WSW 8.1 mph - N/A   Partly Cloudy
11:15 AM 50.0 °F - 39.2 °F 66% 29.67 in 10.0 mi WSW 8.1 mph - N/A   Clear
11:35 AM 50.0 °F - 39.2 °F 66% 29.67 in 10.0 mi SW 9.2 mph - N/A   Mostly Cloudy
11:55 AM 50.0 °F - 39.2 °F 66% 29.68 in 10.0 mi SSW 9.2 mph - N/A   Mostly Cloudy
12:15 PM 50.0 °F - 39.2 °F 66% 29.68 in 10.0 mi South 3.5 mph - N/A   Overcast
12:35 PM 50.0 °F - 39.2 °F 66% 29.68 in 10.0 mi Calm Calm - N/A   Overcast
12:55 PM 50.0 °F - 39.2 °F 66% 29.68 in 10.0 mi SSW 4.6 mph - N/A   Overcast
1:15 PM 50.0 °F - 39.2 °F 66% 29.68 in 10.0 mi SW 4.6 mph - N/A   Overcast
1:35 PM 50.0 °F - 39.2 °F 66% 29.68 in 10.0 mi Calm Calm - N/A   Overcast
1:55 PM 50.0 °F - 39.2 °F 66% 29.68 in 10.0 mi Calm Calm - N/A Rain Light Rain
2:15 PM 50.0 °F - 39.2 °F 66% 29.67 in 10.0 mi Calm Calm - N/A   Overcast
2:35 PM 48.2 °F - 41.0 °F 76% 29.67 in 10.0 mi Calm Calm - N/A   Overcast
2:55 PM 48.2 °F - 41.0 °F 76% 29.67 in 9.0 mi Calm Calm - N/A Rain Light Rain
3:35 PM 46.4 °F - 42.8 °F 87% 29.69 in 3.0 mi Calm Calm - N/A Rain Light Rain
3:55 PM 46.4 °F - 42.8 °F 87% 29.68 in 2.5 mi Calm Calm - N/A Rain Light Rain
4:15 PM 44.6 °F - 42.8 °F 93% 29.67 in 7.0 mi Calm Calm - N/A Rain Light Rain
4:35 PM 44.6 °F - 44.6 °F 100% 29.67 in 10.0 mi Calm Calm - N/A Rain Light Rain
4:55 PM 44.6 °F - 44.6 °F 100% 29.66 in 5.0 mi Calm Calm - N/A Rain Light Rain
5:15 PM 44.6 °F - 42.8 °F 93% 29.66 in 8.0 mi North - - N/A   Mostly Cloudy
5:35 PM 42.8 °F - 42.8 °F 100% 29.65 in 10.0 mi Calm Calm - N/A   Partly Cloudy
5:55 PM 41.0 °F - 41.0 °F 100% 29.65 in 8.0 mi Calm Calm - N/A   Clear
6:15 PM 41.0 °F - 41.0 °F 100% 29.64 in 10.0 mi North - - N/A   Clear
6:35 PM 41.0 °F - 41.0 °F 100% 29.65 in 10.0 mi North - - N/A   Partly Cloudy
6:55 PM 44.6 °F 43.1 °F 42.8 °F 93% 29.64 in 5.0 mi South 3.5 mph - N/A Rain Light Rain
7:15 PM 44.6 °F 41.4 °F 42.8 °F 93% 29.64 in 9.0 mi South 5.8 mph - N/A Rain Light Rain
7:35 PM 44.6 °F 43.1 °F 41.0 °F 87% 29.62 in 10.0 mi South 3.5 mph - N/A   Partly Cloudy
7:55 PM 44.6 °F 40.7 °F 42.8 °F 93% 29.63 in 10.0 mi South 6.9 mph - N/A   Partly Cloudy
8:15 PM 44.6 °F 40.2 °F 42.8 °F 93% 29.64 in 10.0 mi South 8.1 mph - N/A Rain Light Rain
8:35 PM 44.6 °F 39.2 °F 42.8 °F 93% 29.65 in 10.0 mi SSW 10.4 mph - N/A Rain Light Rain
8:55 PM 44.6 °F 39.7 °F 41.0 °F 87% 29.67 in 4.0 mi WSW 9.2 mph 21.9 mph 0.03 in Rain Light Rain
9:15 PM 44.6 °F 40.7 °F 41.0 °F 87% 29.66 in 10.0 mi South 6.9 mph - N/A   Scattered Clouds
9:35 PM 44.6 °F 39.7 °F 41.0 °F 87% 29.68 in 10.0 mi SSW 9.2 mph - N/A   Partly Cloudy
9:55 PM 44.6 °F 39.7 °F 41.0 °F 87% 29.69 in 7.0 mi SW 9.2 mph 25.3 mph N/A Rain Light Rain
10:15 PM 42.8 °F 36.6 °F 41.0 °F 93% 29.69 in 10.0 mi SSW 11.5 mph 17.3 mph N/A   Scattered Clouds
10:35 PM 42.8 °F 37.0 °F 41.0 °F 93% 29.71 in 10.0 mi SSW 10.4 mph - N/A Rain Light Rain
10:55 PM 41.0 °F 33.1 °F 37.4 °F 87% 29.72 in 8.0 mi SSW 15.0 mph 19.6 mph N/A Rain Light Rain
11:15 PM 41.0 °F 35.2 °F 37.4 °F 87% 29.74 in 10.0 mi South 9.2 mph - N/A   Partly Cloudy
11:35 PM 41.0 °F 34.7 °F 37.4 °F 87% 29.75 in 10.0 mi SSW 10.4 mph 17.3 mph N/A   Mostly Cloudy
11:55 PM 41.0 °F 33.9 °F 37.4 °F 87% 29.76 in 10.0 mi SSW 12.7 mph - N/A   Scattered Clouds